Estación de San Felipe

Ultimos registro cada 15 minutos 29
Estación Fecha / Hora Temperatura Humedad Lluvia Velocidad Dirección Radiación Presion
29 San Felipe 08-05-2026 07:00 2,2 95,3 0 0 21 0,6 942,5
28 San Felipe 08-05-2026 06:45 2,6 95,1 0 0 21 0,6 942,5
27 San Felipe 08-05-2026 06:30 2,9 95,4 0 0 21 0,6 942,4
26 San Felipe 08-05-2026 06:15 2,4 95 0 0 21 0,6 942,4
25 San Felipe 08-05-2026 06:00 2,3 94,9 0 0 21 0,6 942,3
24 San Felipe 08-05-2026 05:45 2,4 94,6 0 0 21 0,6 942,1
23 San Felipe 08-05-2026 05:30 2,4 94,3 0 0 21 0,6 942
22 San Felipe 08-05-2026 05:15 2,5 94,2 0 0 21 0,6 941,8
21 San Felipe 08-05-2026 05:00 3 93,8 0 0 21 0,6 941,8
20 San Felipe 08-05-2026 04:45 3,1 93,4 0 0 21 0,6 941,6
19 San Felipe 08-05-2026 04:30 3,8 93,3 0 0 21 0,6 941,8
18 San Felipe 08-05-2026 04:15 3,9 92,8 0 0 21 0,6 942
17 San Felipe 08-05-2026 04:00 4,2 92,8 0 0 22 0,6 942,3
16 San Felipe 08-05-2026 03:45 4,3 92,7 0 0 22 0,6 942,3
15 San Felipe 08-05-2026 03:30 4,2 91,9 0 0 22 0,6 942,4
14 San Felipe 08-05-2026 03:15 4,3 91,2 0 0 22 0,6 942,4
13 San Felipe 08-05-2026 03:00 4,1 90,3 0 0 22 0,6 942,4
12 San Felipe 08-05-2026 02:45 4,7 89,2 0 0 22 0,6 942,6
11 San Felipe 08-05-2026 02:30 6,3 89,1 0 0 22 0,6 942,9
10 San Felipe 08-05-2026 02:15 6,4 88 0 0 22 0,6 942,8
9 San Felipe 08-05-2026 02:00 6,4 86,2 0 0 22 0,6 942,9
8 San Felipe 08-05-2026 01:45 7,6 85,3 0 0 22 0,6 942,9
7 San Felipe 08-05-2026 01:30 8,2 83,4 0 0 22 0,6 943
6 San Felipe 08-05-2026 01:15 8,2 82,6 0 0 22 0,6 943,2
5 San Felipe 08-05-2026 01:00 9,1 80,9 0 0 22 0,6 943,3
4 San Felipe 08-05-2026 00:45 9,4 80,4 0 0 22 0,6 943,4
3 San Felipe 08-05-2026 00:30 9,3 80,6 0 0 22 0,6 943,5
2 San Felipe 08-05-2026 00:15 9,2 80,5 0 0 22 0,6 943,7
1 San Felipe 08-05-2026 00:00 9,3 79,1 0 0 22 0,6 943,9